User: anonymous   Login
Location: Newark
(44.4500°N, 0.0833°W)
Time: 01:41:36
(UTC+00:00)
Language:

LightSail 2 - Orbit

View from above orbital plane
View from above orbital plane
View from above satellite
View from above satellite

Ground track
Ground track

The orbit data is extracted from the following two-line orbital elements,

1 44420U 19036AC  20021.24350634  .00002897  00000-0  62263-3 0  9993
2 44420  24.0098 323.2621 0011084 289.5825  70.3476 14.54173670 28703
Epoch (UTC): 21 January 2020 05:50:38
Eccentricity: 0.0011084
inclination: 24.0098°
perigee height: 704 km
apogee height: 720 km
right ascension of ascending node: 323.2621°
argument of perigee: 289.5825°
revolutions per day: 14.54173670
mean anomaly at epoch: 70.3476°
orbit number at epoch: 2870

The dashed part of the orbit path shows where the satellite is in the earth's shadow,  

DLR